Home   Weather   Mechernich   Past weeks

Flag for Germany Past Weather in Mechernich, North Rhine-Westphalia, Germany — Yesterday and Last 2 Weeks

Now
59 °F

Rain. Mostly cloudy.


Feels Like: 56 °F
Forecast: 56 / 70 °F
Wind: 18 mph from Northwest

Location: Noervenich

Current Time: Jul 25, 2017 at 10:43:19 pm

Latest Report: Jul 25, 2017 at 9:34 pm


Visibility: 5 mi

Pressure: 29.80 "Hg

Humidity: 88%

Dew Point: 55 °F

Location of MechernichLocation

Past Weather in Mechernich — Graph

°F

Mechernich Temperature Yesterday

Maximum temperature yesterday: 66 °F (at 3:20 pm)
Minimum temperature yesterday: 55 °F (at 5:20 am)
Average temperature yesterday: 59 °F

High & Low Weather Summary for the Past Weeks

 TemperatureHumidityPressure
High91 °F (Jul 19, 1:20 pm)100% (Jul 24, 7:20 am)30.24 "Hg (Jul 24, 7:20 am)
Low48 °F (Jul 13, 5:20 am)32% (Jul 19, 1:20 pm)29.74 "Hg (Jul 12, 9:03 am)
Average65 °F70%29.97 "Hg
* Reported Jul 10 9:20 pm — Jul 25 9:34 pm, Mechernich. Weather by CustomWeather, © 2017

Note: Actual official high and low records may vary slightly from our data, if they occured in-between our weather recording intervals... More about our weather records

Advertising

Mechernich Weather History for the Previous 24 Hours

Scroll right to see more
 ConditionsComfort  
Time TempWeatherWind HumidityBarometerVisibility
9:34 pm
Tue, Jul 25
59 °FRain. Mostly cloudy.18 mph88%29.80 "Hg5 mi
8:20 pm59 °FRain. Partly sunny.17 mph94%29.77 "Hg4 mi
8:01 pm59 °FRain. Fog.15 mph94%29.77 "Hg3 mi
7:38 pm59 °FRain. Fog.17 mph88%29.77 "Hg3 mi
6:20 pm59 °FLight rain. Broken clouds.14 mph88%29.80 "HgN/A
5:49 pm61 °FLight rain. Partly sunny.14 mph88%29.80 "HgN/A
5:32 pm61 °FRain. Broken clouds.9 mph83%29.80 "Hg4 mi
4:56 pm63 °FLight rain. Broken clouds.9 mph83%29.80 "HgN/A
4:33 pm61 °FSprinkles. Broken clouds.8 mph94%29.80 "HgN/A
4:04 pm59 °FRain showers. Broken clouds.12 mph94%29.80 "Hg4 mi
3:49 pm61 °FRain showers. Broken clouds.13 mph88%29.80 "Hg1 mi
3:34 pm63 °FRain showers. Broken clouds.13 mph88%29.80 "Hg4 mi
2:49 pm63 °FSprinkles. Fog.13 mph83%29.80 "Hg3 mi
2:20 pm63 °FBroken clouds.10 mph83%29.80 "HgN/A
1:20 pm61 °FBroken clouds.12 mph88%29.80 "HgN/A
12:50 pm57 °FSprinkles. Broken clouds.17 mph94%29.80 "Hg6 mi
12:40 pm64 °FRain showers. Partly sunny.13 mph68%29.80 "Hg1 mi
12:20 pm64 °FPartly sunny.16 mph68%29.80 "HgN/A
11:20 am63 °FPartly sunny.12 mph77%29.83 "HgN/A
10:20 am59 °FPartly sunny.12 mph88%29.83 "HgN/A
9:20 am59 °FBroken clouds.14 mph88%29.83 "Hg6 mi
8:20 am57 °FLight rain. Fog.12 mph94%29.83 "Hg3 mi
7:20 am57 °FLight rain. Fog.9 mph94%29.83 "Hg2 mi
6:20 am57 °FLight rain. Partly sunny.12 mph94%29.83 "Hg4 mi
5:20 am55 °FRain showers. Partly cloudy.9 mph94%29.83 "Hg2 mi
4:20 am57 °FPartly cloudy.9 mph94%29.83 "HgN/A
3:20 am57 °FSprinkles. Partly cloudy.8 mph94%29.83 "HgN/A
2:20 am57 °FPartly cloudy.10 mph94%29.86 "HgN/A
1:20 am57 °FPartly cloudy.12 mph88%29.86 "HgN/A
12:20 am57 °FPartly cloudy.7 mph88%29.86 "HgN/A
11:20 pm
Mon, Jul 24
57 °FPassing clouds.9 mph88%29.83 "HgN/A
10:20 pm57 °FPassing clouds.8 mph88%29.83 "HgN/A
Weather by CustomWeather, © 2017

See weather overviewHow to use our weather pages